[[{"header":{"parameterUnit":"m.s-1","parameterCategory":1,"la1":30.2991,"la2":30.254,"lo1":-89.0895,"lo2":-89.0444,"dy":0.0017,"dx":0.0017,"nx":28,"ny":28,"refTime":"2025-11-19T03:00:00:Z","depth":0,"parameterNumber":2,"parameterNumberName":"U-component_of_WINDS"},"data":[0,0,0,0,0,0,0,0,0,0,0,0,0,0,0,0,0,0,0,0,0,0,0,0,0,0,0,0,0,0,0,0,0,0,0,0,0,0,0,0,0,0,0,0,0,0,0,0,0,0,0,0,0,0,0,0,0,0,-2.2058,-2.2058,0,-2.2021,-2.2021,-2.2021,-2.1935,-2.1933,-2.1931,-2.193,-2.1895,-2.1896,-2.1896,0,0,0,0,0,0,0,0,0,0,0,0,0,-2.2059,-2.2059,-2.2058,-2.2058,-2.2057,-2.2021,-2.2021,-2.202,-2.1935,-2.1933,-2.1931,-2.1929,-2.1895,-2.1896,-2.1896,0,0,0,0,0,0,0,0,0,0,0,0,0,-2.2044,-2.2059,-2.2058,-2.2011,-2.2006,-2.2022,-2.2021,-2.202,-2.1936,-2.1933,-2.193,-2.1928,-2.1894,-2.1895,-2.1897,-2.1957,0,0,-2.19,-2.19,0,0,0,0,0,0,0,0,-2.2045,-2.2044,-2.2018,-2.2014,-2.2009,-2.198,-2.2008,-2.1999,-2.1936,-2.1963,-2.193,-2.1927,-2.1926,-2.1924,-2.1923,-2.1955,-2.1954,-2.19,-2.1901,-2.1901,-2.1901,0,0,0,0,0,0,0,-2.2046,-2.2045,-2.2044,-2.2018,-2.2012,-2.1992,-2.1987,-2.2006,-2.196,-2.196,-2.1954,-2.195,-2.1923,-2.1922,-2.1922,-2.1953,-2.19,-2.1901,-2.1902,-2.1902,-2.2033,-2.2036,0,0,0,0,0,0,-2.2054,-2.2047,-2.2045,-2.2043,-2.2021,-2.1994,-2.1989,-2.1992,-2.1959,-2.1951,-2.1953,-2.1946,-2.1922,-2.192,-2.192,-2.1988,-2.1901,-2.1902,-2.1903,-2.203,-2.2034,-2.2037,0,0,0,0,0,0,-2.2054,-2.2054,-2.2046,-2.2043,-2.204,-2.1997,-2.2002,-2.1993,-2.1992,-2.1953,-2.1945,-2.196,-2.1919,-2.1918,-2.1948,-2.1986,-2.1903,-2.1904,-2.2027,-2.2031,-2.2035,-2.2125,0,0,0,0,0,0,-2.2054,-2.2055,-2.2076,-2.2044,-2.2041,-2.2074,-2.2004,-2.1994,-2.1994,-2.1985,-2.1959,-2.1952,-2.1917,-2.1947,-2.1949,-2.1986,-2.1905,-2.2023,-2.2029,-2.2034,-2.2118,-2.2132,-2.2143,0,0,0,0,0,-2.2055,-2.2104,-2.2078,-2.2078,-2.2067,-2.2077,-2.2075,-2.2033,-2.1997,-2.2019,-2.1994,-2.1953,-2.1982,-2.1951,-2.1952,-2.199,-2.2021,-2.2027,-2.2034,-2.2113,-2.2129,-2.2143,0,0,0,0,0,0,-2.2142,-2.2099,-2.2069,-2.2109,-2.2097,-2.2062,-2.2088,-2.2052,-2.2051,-2.2043,-2.1993,-2.1987,-2.2024,-2.201,-2.1976,-2.2047,-2.1994,-2.2002,-2.2054,-2.2069,-2.2081,-2.2084,-2.1905,0,0,0,0,0,-2.2166,-2.2177,-2.2139,-2.2178,-2.2173,-2.2132,-2.2135,-2.2104,-2.209,-2.2085,-2.2062,-2.2051,-2.2057,-2.2063,-2.2066,-2.2116,-2.211,-2.2143,-2.2156,-2.2166,-2.2172,-2.2198,-2.2213,-2.2058,-2.2058,-2.2058,0,0,-2.2216,-2.2193,-2.2203,-2.2195,-2.2182,-2.2195,-2.2128,-2.2145,-2.2154,-2.2087,-2.2113,-2.2097,-2.2081,-2.2121,-2.2138,-2.2111,-2.2214,-2.2174,-2.2183,-2.2183,-2.2206,-2.2221,-2.2234,-2.2062,-2.2061,-2.2061,0,0,-2.2313,-2.2297,-2.2327,-2.2316,-2.2297,-2.2269,-2.2277,-2.2247,-2.2234,-2.2259,-2.2209,-2.222,-2.2233,-2.2223,-2.222,-2.2315,-2.2277,-2.2318,-2.2383,-2.2408,-2.242,-2.2431,-2.2465,-2.2477,-2.2325,-2.2325,-2.2325,0,-2.2377,-2.2394,-2.2348,-2.2368,-2.2366,-2.2305,-2.2336,-2.2328,-2.2312,-2.2312,-2.2282,-2.2296,-2.2281,-2.2319,-2.2342,-2.2342,-2.2349,-2.2321,-2.2422,-2.2432,-2.2441,-2.2473,-2.2486,-2.233,-2.233,-2.2329,-2.2329,0,-2.2474,-2.2486,-2.2514,-2.2498,-2.25,-2.2525,-2.2484,-2.2492,-2.2461,-2.2437,-2.2465,-2.2445,-2.2444,-2.2451,-2.2421,-2.2484,-2.2468,-2.2431,-2.2377,-2.2462,-2.2491,-2.2503,-2.2338,-2.2336,-2.2334,-2.2333,0,0,-2.2624,-2.2583,-2.2594,-2.2587,-2.2562,-2.2571,-2.2595,-2.2593,-2.26,-2.2591,-2.261,-2.2622,-2.2588,-2.2585,-2.2554,-2.2577,-2.2653,-2.2537,-2.2536,-2.2559,-2.2721,-2.2749,-2.2764,-2.2628,-2.263,-2.2632,-2.2722,0,-2.2714,-2.275,-2.271,-2.2756,-2.2767,-2.271,-2.2731,-2.2719,-2.2698,-2.2705,-2.2682,-2.2691,-2.2645,-2.2643,-2.2663,-2.264,-2.2685,-2.2633,-2.2646,-2.2647,-2.265,-2.2778,-2.2807,-2.2894,-2.2734,-2.2735,-2.2737,0,-2.2824,-2.282,-2.2866,-2.2838,-2.2842,-2.2861,-2.2856,-2.2864,-2.2849,-2.2832,-2.2829,-2.2792,-2.2815,-2.2763,-2.2794,-2.2759,-2.2762,-2.2752,-2.2754,-2.2753,-2.2696,-2.2781,-2.292,-2.2933,-2.2754,-2.2753,-2.2751,0,-2.2928,-2.2934,-2.2962,-2.2958,-2.2927,-2.2942,-2.293,-2.2912,-2.2914,-2.291,-2.2911,-2.2911,-2.2911,-2.2912,-2.2877,-2.2842,-2.2912,-2.2857,-2.2899,-2.29,-2.2915,-2.2914,-2.3057,-2.2919,-2.2919,-2.2918,-2.2918,0,-2.3033,-2.3063,-2.3009,-2.3026,-2.3059,-2.3014,-2.3048,-2.303,-2.3015,-2.3029,-2.2981,-2.2995,-2.2948,-2.2957,-2.293,-2.2959,-2.296,-2.2948,-2.294,-2.2951,-2.2953,-2.2952,-2.2945,-2.2922,-2.2921,-2.292,-2.292,0,-2.3154,-2.3119,-2.3146,-2.3114,-2.3107,-2.3133,-2.3106,-2.3122,-2.3098,-2.3116,-2.3118,-2.3081,-2.3089,-2.3054,-2.3058,-2.3039,-2.3083,-2.3066,-2.3087,-2.3082,-2.3125,-2.3121,-2.3271,-2.3289,-2.3141,-2.3142,-2.3143,0,-2.3223,-2.3245,-2.3216,-2.3221,-2.3211,-2.322,-2.3221,-2.3179,-2.3182,-2.3168,-2.3185,-2.319,-2.3191,-2.3208,-2.3182,-2.3185,-2.3167,-2.3219,-2.3167,-2.3178,-2.3167,-2.3166,-2.3168,-2.323,-2.3232,-2.3233,-2.3234,0,-2.3349,-2.333,-2.3333,-2.3331,-2.3333,-2.3329,-2.3322,-2.333,-2.3284,-2.329,-2.3298,-2.3299,-2.3302,-2.3308,-2.3305,-2.3294,-2.3257,-2.3251,-2.3261,-2.3273,-2.3284,-2.3278,-2.3116,-2.3248,-2.3246,-2.3246,-2.3245,-2.3244,-2.3445,-2.3462,-2.3444,-2.3449,-2.3439,-2.3434,-2.3447,-2.3425,-2.343,-2.3428,-2.3403,-2.3417,-2.3402,-2.3395,-2.3387,-2.3398,-2.3373,-2.3387,-2.3391,-2.3395,-2.3402,-2.3283,-2.3397,-2.3397,-2.3396,-2.3396,-2.3396,0,-2.3568,-2.3553,-2.3559,-2.355,-2.3555,-2.3519,-2.351,-2.3516,-2.3528,-2.3517,-2.3519,-2.3529,-2.3535,-2.351,-2.3512,-2.3525,-2.3508,-2.3527,-2.3525,-2.3523,-2.3424,-2.3415,-2.354,-2.354,-2.354,-2.354,-2.354,-2.354,-2.3632,-2.3658,-2.3638,-2.366,-2.3646,-2.3657,-2.3655,-2.365,-2.3642,-2.3654,-2.3658,-2.3641,-2.3625,-2.3626,-2.363,-2.3622,-2.3625,-2.365,-2.3637,-2.3544,-2.353,-2.3517,-2.3508,-2.3651,-2.3651,-2.3735,-2.3736,-2.3737]},{"header":{"parameterUnit":"m.s-1","parameterCategory":1,"la1":30.2991,"la2":30.254,"lo1":-89.0895,"lo2":-89.0444,"dy":0.0017,"dx":0.0017,"nx":28,"ny":28,"refTime":"2025-11-19T03:00:00:Z","depth":0,"parameterNumber":3,"parameterNumberName":"V-component_of_WINDS"},"data":[0,0,0,0,0,0,0,0,0,0,0,0,0,0,0,0,0,0,0,0,0,0,0,0,0,0,0,0,0,0,0,0,0,0,0,0,0,0,0,0,0,0,0,0,0,0,0,0,0,0,0,0,0,0,0,0,0,0,0.0658,0.0658,0,0.0697,0.0697,0.0698,0.0768,0.077,0.0771,0.0772,0.081,0.081,0.081,0,0,0,0,0,0,0,0,0,0,0,0,0,0.0643,0.0643,0.0658,0.0658,0.0659,0.0697,0.0697,0.0698,0.0768,0.077,0.0771,0.0773,0.081,0.081,0.081,0,0,0,0,0,0,0,0,0,0,0,0,0,0.0663,0.0643,0.0658,0.0699,0.0703,0.0697,0.0698,0.0698,0.0768,0.077,0.0772,0.0774,0.081,0.081,0.081,0.0767,0,0,0.0809,0.0808,0,0,0,0,0,0,0,0,0.0661,0.0663,0.0692,0.0696,0.07,0.073,0.0706,0.0721,0.0767,0.0743,0.0772,0.0775,0.0782,0.0784,0.0787,0.0769,0.077,0.0809,0.0808,0.0808,0.0808,0,0,0,0,0,0,0,0.066,0.0662,0.0673,0.0692,0.0697,0.0715,0.072,0.0709,0.075,0.0745,0.075,0.0754,0.0784,0.0787,0.0788,0.0771,0.0809,0.0808,0.0808,0.0808,0.0721,0.0719,0,0,0,0,0,0,0.0653,0.066,0.0672,0.0675,0.0686,0.0713,0.0719,0.0718,0.0751,0.0758,0.0752,0.0757,0.0787,0.0788,0.079,0.0743,0.0808,0.0808,0.0808,0.0723,0.0721,0.0718,0,0,0,0,0,0,0.0652,0.0653,0.0671,0.0669,0.0672,0.0711,0.071,0.0718,0.0721,0.0756,0.0764,0.0747,0.0788,0.079,0.0773,0.0745,0.0808,0.0807,0.0726,0.0722,0.072,0.0647,0,0,0,0,0,0,0.0652,0.0653,0.0637,0.0668,0.0672,0.0653,0.0709,0.0717,0.072,0.0727,0.0754,0.076,0.079,0.0773,0.0772,0.0746,0.0807,0.0728,0.0724,0.072,0.0652,0.0642,0.0634,0,0,0,0,0,0.0651,0.0614,0.0636,0.0637,0.0653,0.0651,0.0653,0.0689,0.0717,0.0702,0.0725,0.0759,0.0748,0.077,0.077,0.0743,0.073,0.0725,0.0721,0.0657,0.0644,0.0634,0,0,0,0,0,0,0.0578,0.0619,0.0643,0.0616,0.063,0.0663,0.0644,0.0675,0.068,0.0686,0.073,0.0735,0.0712,0.0726,0.075,0.0704,0.0745,0.074,0.0696,0.0684,0.0675,0.0672,0.0807,0,0,0,0,0,0.0559,0.0554,0.059,0.0562,0.0568,0.0605,0.0605,0.0632,0.0647,0.0653,0.0675,0.0688,0.0688,0.0687,0.0689,0.0655,0.0662,0.0636,0.0627,0.0619,0.0614,0.0598,0.0588,0.0703,0.0703,0.0703,0,0,0.0519,0.0541,0.0535,0.0548,0.0562,0.0556,0.0609,0.06,0.0596,0.0652,0.0637,0.0653,0.0671,0.0645,0.0635,0.0656,0.0584,0.0613,0.0606,0.0606,0.0592,0.0582,0.0572,0.07,0.07,0.0701,0,0,0.0444,0.0459,0.0439,0.0452,0.0472,0.0497,0.0492,0.0521,0.0534,0.052,0.0562,0.0558,0.0556,0.0568,0.0573,0.0503,0.0535,0.0503,0.0453,0.0437,0.0428,0.042,0.0396,0.0387,0.0498,0.0497,0.0497,0,0.0391,0.0384,0.0424,0.0413,0.0418,0.0469,0.0448,0.0459,0.0478,0.048,0.0504,0.0504,0.0519,0.0498,0.0481,0.0483,0.0479,0.05,0.0426,0.0419,0.0412,0.0389,0.038,0.0493,0.0494,0.0494,0.0495,0,0.0319,0.0314,0.0294,0.0313,0.0316,0.03,0.0337,0.0335,0.0361,0.0384,0.0369,0.039,0.0397,0.0394,0.0419,0.0376,0.0389,0.0418,0.046,0.0396,0.0376,0.0367,0.0488,0.0489,0.049,0.0491,0,0,0.0198,0.024,0.0233,0.0242,0.0269,0.0266,0.0252,0.026,0.0258,0.027,0.026,0.0258,0.0286,0.0292,0.0319,0.0305,0.025,0.0337,0.0338,0.0321,0.0204,0.0182,0.0171,0.0271,0.0269,0.0268,0.0203,0,0.0129,0.0109,0.0145,0.0116,0.0112,0.0161,0.015,0.0165,0.0185,0.0185,0.0207,0.0206,0.0243,0.0247,0.0235,0.0259,0.0227,0.0264,0.0262,0.0262,0.0256,0.016,0.0136,0.0074,0.0195,0.0194,0.0193,0,0.0045,0.0054,0.0026,0.0055,0.0055,0.0044,0.0055,0.0053,0.0072,0.0088,0.0095,0.0128,0.0117,0.0157,0.0142,0.0167,0.0168,0.018,0.0178,0.018,0.0223,0.016,0.0055,0.0045,0.018,0.0181,0.0182,0,-0.0039,-0.0034,-0.005,-0.0044,-0.001,-0.0018,-0.0005,0.0016,0.0019,0.0028,0.003,0.0038,0.0042,0.0047,0.008,0.0106,0.0062,0.0105,0.0075,0.0074,0.0064,0.0064,-0.0042,0.0064,0.0064,0.0064,0.0064,0,-0.012,-0.0139,-0.0088,-0.0098,-0.0118,-0.0076,-0.0097,-0.0079,-0.0061,-0.0066,-0.0024,-0.003,0.0015,0.0013,0.0039,0.0024,0.0025,0.0038,0.0045,0.0035,0.0033,0.0036,0.0042,0.0062,0.0062,0.0063,0.0063,0,-0.0218,-0.0184,-0.0198,-0.0164,-0.0156,-0.0172,-0.0143,-0.0151,-0.0127,-0.0135,-0.0134,-0.0097,-0.0096,-0.0062,-0.0055,-0.0037,-0.0063,-0.0048,-0.0069,-0.0064,-0.0095,-0.0093,-0.0203,-0.0215,-0.0102,-0.0103,-0.0104,0,-0.0271,-0.0285,-0.0252,-0.0252,-0.024,-0.0241,-0.0238,-0.0197,-0.0196,-0.0175,-0.0185,-0.0181,-0.0175,-0.0176,-0.0149,-0.0142,-0.0127,-0.0165,-0.0125,-0.0136,-0.0126,-0.0126,-0.0127,-0.0174,-0.0176,-0.0177,-0.0178,0,-0.037,-0.0352,-0.0348,-0.0339,-0.0335,-0.0326,-0.0314,-0.0317,-0.0272,-0.0272,-0.027,-0.0266,-0.0257,-0.0253,-0.0242,-0.0228,-0.0196,-0.019,-0.0197,-0.0208,-0.0219,-0.0213,-0.0092,-0.0188,-0.0187,-0.0186,-0.0186,-0.0185,-0.0447,-0.0456,-0.0434,-0.0431,-0.0417,-0.0407,-0.0412,-0.0388,-0.0386,-0.0375,-0.0352,-0.0353,-0.0334,-0.0315,-0.0304,-0.0304,-0.0285,-0.0294,-0.0296,-0.0299,-0.0305,-0.0219,-0.0302,-0.0302,-0.0302,-0.0301,-0.0301,0,-0.0542,-0.0525,-0.0523,-0.0507,-0.0504,-0.0473,-0.0458,-0.0458,-0.046,-0.0444,-0.0439,-0.0437,-0.0432,-0.0404,-0.0396,-0.0402,-0.0387,-0.0402,-0.0401,-0.0398,-0.0323,-0.0318,-0.0414,-0.0414,-0.0414,-0.0414,-0.0414,-0.0414,-0.0592,-0.0606,-0.0585,-0.0592,-0.0575,-0.0575,-0.0569,-0.0559,-0.0546,-0.0545,-0.0541,-0.0522,-0.0501,-0.0492,-0.0486,-0.0478,-0.0477,-0.0496,-0.0483,-0.0414,-0.0403,-0.0393,-0.0388,-0.0497,-0.0497,-0.0557,-0.0558,-0.0558]}]]